User: anonymous   Login
Location: Chaves
(41.7330°N, 7.4670°W)
Time: 05:38:24
(UTC+00:00)
Language:

ISS - Orbit

View from above orbital plane
View from above orbital plane
View from above satellite
View from above satellite

Ground track
Ground track

The orbit data is extracted from the following two-line orbital elements,

1 25544U 98067A   24061.70665397  .00016506  00000-0  30142-3 0  9997
2 25544  51.6408 128.0428 0005740 313.4815 191.2492 15.49526313441884
Epoch (UTC): 01 March 2024 16:57:34
Eccentricity: 0.0005740
inclination: 51.6408°
perigee height: 414 km
apogee height: 422 km
right ascension of ascending node: 128.0428°
argument of perigee: 313.4815°
revolutions per day: 15.49526313
mean anomaly at epoch: 191.2492°
orbit number at epoch: 44188

The dashed part of the orbit path shows where the satellite is in the earth's shadow,  

DLR